This demonstration page uses our WeatherBlox Daily Observations layout. Learn more.

Left ArrowRight Arrow

39.08367, -84.50855

Hourly Observations for April 1, 2017

Temp ( °F °C ) Dew Point ( °F °C ) Humidity (%) Winds ( mph kmh ) Pressure ( in mb ) Visibility ( mi km ) Precip ( " mm )
12:53 am 00:53 Cloudy 45 7.2 41 5 86 86 NW 7 11 29.98 1015 10 16 N/A
1:53 am 01:53 Cloudy 44 6.7 41 5 89 89 NW 9 15 30.00 1016 10 16 N/A
2:39 am 02:39 Cloudy 43 6.1 41 5 93 93 W 10 17 30.03 1017 10 16 N/A
2:53 am 02:53 Cloudy 43 6.1 40 4.4 89 89 VRB 5 7 30.02 1017 10 16 N/A
3:53 am 03:53 Cloudy 43 6.1 40 4.4 89 89 VRB 3 6 30.04 1017 10 16 N/A
4:53 am 04:53 Cloudy 43 6.1 40 4.4 89 89 NW 3 6 30.04 1017 9 14 N/A
5:49 am 05:49 Cloudy 43 6 39 4 87 87 WNW 5 7 30.06 1018 10 16 N/A
5:53 am 05:53 Cloudy 43 6.1 40 4.4 89 89 WNW 6 9 30.06 1018 10 16 N/A
6:53 am 06:53 Cloudy 43 6.1 39 3.9 86 86 NW 7 11 30.09 1019 10 16 N/A
7:53 am 07:53 Cloudy 43 6.1 40 4.4 89 89 NNW 6 9 30.12 1020 10 16 N/A
8:53 am 08:53 Cloudy 43 6.1 40 4.4 89 89 N 12 19 30.16 1021 10 16 N/A
9:53 am 09:53 Cloudy 43 6.1 40 4.4 89 89 NNW 5 7 30.16 1022 10 16 N/A
10:53 am 10:53 Cloudy 44 6.7 39 3.9 83 83 N 9 15 30.19 1022 10 16 N/A
11:53 am 11:53 Cloudy 45 7.2 39 3.9 80 80 N 9 15 30.20 1023 10 16 N/A
12:53 pm 12:53 Cloudy 46 7.8 39 3.9 77 77 WNW 6 9 30.21 1023 10 16 N/A
1:53 pm 13:53 Cloudy 46 7.8 39 3.9 77 77 W 6 9 30.20 1023 10 16 N/A
2:53 pm 14:53 Cloudy 49 9.4 40 4.4 71 71 N 9 15 30.19 1023 10 16 N/A
3:53 pm 15:53 Cloudy 49 9.4 41 5 74 74 NNW 10 17 30.19 1022 10 16 N/A
4:53 pm 16:53 Cloudy 50 10 40 4.4 68 68 N 5 7 30.20 1023 10 16 N/A
5:53 pm 17:53 Cloudy 50 10 40 4.4 68 68 N 5 7 30.22 1023 10 16 N/A
6:53 pm 18:53 Cloudy 50 10 40 4.4 68 68 NNE 6 9 30.23 1024 10 16 N/A
7:53 pm 19:53 Cloudy 52 11 46 8 82 82 W 16 26 29.88 1012 10 16 N/A
8:53 pm 20:53 Partly Cloudy 44 6.7 40 4.4 85 85 NE 5 7 30.24 1024 10 16 N/A
9:53 pm 21:53 Mostly Clear 45 7.2 40 4.4 83 83 N N/A 30.24 1024 10 16 N/A
10:53 pm 22:53 Clear 40 4.4 39 3.9 97 97 N N/A 30.26 1025 10 16 N/A
11:53 pm 23:53 Clear 40 4.4 40 4.4 100 100 NE 3 6 30.28 1025 10 16 N/A

Powered by AerisWeather